Paso Robles, CA

12:43 PM PST on February 12, 2016 (GMT -0800)
Paso Robles Municipal

Weather History for KPRB - May, 2013

Change the Weather History Date:

Sunday, May 12, 2013

  Actual Average Record
Temperature  
Mean Temperature 79 °F 63 °F  
Max Temperature 102 °F 80 °F 105 °F (1976)
Min Temperature 56 °F 46 °F 31 °F (1993)
Degree Days  
Heating Degree Days 0 4  
Month to date heating degree days 13 56  
Since 1 July heating degree days 2361 2768  
Cooling Degree Days 14 2  
Month to date cooling degree days 49 14  
Year to date cooling degree days 78 23  
Growing Degree Days 28 (Base 50)    
Moisture  
Dew Point 44 °F    
Average Humidity 39    
Maximum Humidity 67    
Minimum Humidity 11    
Precipitation  
Precipitation 0.00 in 0.01 in 0.60 in (1998)
Month to date precipitation 0.05 0.14  
Year to date precipitation 1.46 8.65  
Since 1 July precipitation 4.67  
Sea Level Pressure  
Sea Level Pressure 30.03 in    
Wind  
Wind Speed 5 mph (WNW)    
Max Wind Speed 22 mph    
Max Gust Speed -    
Visibility 10 miles    
Events      
T = Trace of Precipitation, MM = Missing Value Source: NWS Daily Summary

Daily Weather History Graph

Daily Weather History Graph

Search for Another Location

Airport or City:

Trip Planner

Search our weather history database for the weather conditions in past years. The results will help you decide how hot, cold, wet, or windy it might be!

Date:

Astronomy

May. 12, 2013 Rise Set
Actual Time 5:59 AM PDT 7:58 PM PDT
Civil Twilight 5:31 AM PDT 8:26 PM PDT
Nautical Twilight 4:57 AM PDT 9:01 PM PDT
Astronomical Twilight 4:20 AM PDT 9:38 PM PDT
Moon 8:00 AM PDT 10:28 PM PDT
Length of Visible Light 14h 55m
Length of Day
13h 58m
Waxing Crescent, 7% of the Moon is Illuminated
May 12
Waxing Crescent
May 17
First Quarter
May 24
Full
May 31
Last Quarter
Jun 8
New

Hourly Weather History & Observations

Time (PDT) Temp. Dew Point Humidity Pressure Visibility Wind Dir Wind Speed Gust Speed Precip Events Conditions
12:53 AM 64.9 °F 46.9 °F 52% 30.09 in 10.0 mi West 5.8 mph - N/A   Clear
1:53 AM 63.0 °F 46.0 °F 54% 30.09 in 10.0 mi Calm Calm - N/A   Clear
2:53 AM 63.0 °F 46.0 °F 54% 30.09 in 10.0 mi Calm Calm - N/A   Clear
3:53 AM 61.0 °F 46.0 °F 58% 30.08 in 10.0 mi Calm Calm - N/A   Clear
4:53 AM 59.0 °F 45.0 °F 60% 30.09 in 10.0 mi Calm Calm - N/A   Clear
5:53 AM 57.0 °F 46.0 °F 67% 30.10 in 10.0 mi Calm Calm - N/A   Clear
6:53 AM 57.9 °F 45.0 °F 62% 30.12 in 10.0 mi Calm Calm - N/A   Clear
7:53 AM 63.0 °F 46.9 °F 56% 30.12 in 10.0 mi Calm Calm - N/A   Clear
8:53 AM 69.1 °F 45.0 °F 42% 30.12 in 10.0 mi Calm Calm - N/A   Clear
9:53 AM 75.9 °F 44.1 °F 32% 30.10 in 10.0 mi Variable 3.5 mph - N/A   Clear
10:53 AM 84.0 °F 46.0 °F 26% 30.08 in 10.0 mi WNW 5.8 mph - N/A   Clear
11:53 AM 91.0 °F 48.0 °F 23% 30.06 in 10.0 mi Calm Calm - N/A   Clear
12:53 PM 96.1 °F 48.0 °F 19% 30.03 in 10.0 mi SW 5.8 mph - N/A   Clear
1:53 PM 99.0 °F 43.0 °F 15% 30.01 in 10.0 mi Calm Calm - N/A   Clear
2:53 PM 100.9 °F 37.0 °F 11% 29.98 in 10.0 mi West 10.4 mph - N/A   Clear
3:53 PM 100.9 °F 37.9 °F 11% 29.95 in 10.0 mi Calm Calm - N/A   Clear
4:53 PM 100.9 °F 39.0 °F 12% 29.93 in 10.0 mi West 10.4 mph - N/A   Clear
5:33 PM 98.6 °F 41.0 °F 14% 29.96 in 10.0 mi NNW 17.3 mph - N/A   Partly Cloudy
5:53 PM 96.1 °F 42.1 °F 15% 29.93 in 10.0 mi NW 17.3 mph - N/A   Clear
6:53 PM 89.1 °F 43.0 °F 20% 29.94 in 10.0 mi NW 13.8 mph - N/A   Clear
7:53 PM 82.9 °F 41.0 °F 23% 29.96 in 10.0 mi WNW 6.9 mph - N/A   Clear
8:53 PM 78.1 °F 44.1 °F 30% 29.99 in 10.0 mi WNW 11.5 mph - N/A   Clear
9:53 PM 75.0 °F 45.0 °F 34% 30.01 in 10.0 mi NW 11.5 mph - N/A   Clear
10:53 PM 72.0 °F 46.0 °F 40% 30.01 in 10.0 mi WNW 9.2 mph - N/A   Clear
11:53 PM 69.1 °F 46.0 °F 44% 30.01 in 10.0 mi West 4.6 mph - N/A   Clear